{"data":{"norad_id":57139,"intl_designator":"2023-090AQ","name":"STARLINK-5355","alt_names":[],"object_type":"PAYLOAD","status":"ACTIVE","operator":null,"country":"US","launch_date":"2023-06-23","launch_site_code":"AFETR","launch_vehicle":null,"mission":null,"orbit_class":"UNKNOWN","rcs_meters":null,"size_class":null,"mass_kg":null,"dimensions":null,"purposes":["comms"],"wikipedia_slug":null,"has_3d_model":false,"image_url":null,"decayed_at":null,"tle_current":{"epoch":"2026-05-25T04:04:34.790304Z","epoch_age_seconds":64396,"freshness":"FRESH","line1":"1 57139U 23090AQ  26145.16984711  .00001877  00000+0  77726-4 0  9999","line2":"2 57139  43.0031 191.1166 0001299 272.4267  87.6436 15.27573393162057","mean_motion":15.27573393,"eccentricity":0.0001299,"inclination_deg":43.0031,"raan_deg":191.1166,"arg_perigee_deg":272.4267,"mean_anomaly_deg":87.6436,"bstar":7.7726e-5,"rev_number":16205,"period_min":94.267156432463,"perigee_km":482.17760920202,"apogee_km":483.96015048961,"semimajor_km":6861.2058798458,"source":"CELESTRAK","updated_at":"2026-05-25T13:38:18.247395Z"}}}